When you browse on this site, cookies collect data to enhance your experience and personalize the content and advertising you see.
Visit our Privacy Policy to learn more. By continuing to use the site, you agree to this use of cookies and data.

Stündliche Wetter Santiago Tulantepec

Heute, 4 August, Dienstag

Zeit Temperatur Niederschläge Wind Luftdruck Luftfeuchtigkeit
00:00 +14°C° 0 mm 0 m/S 586 mmHg 92%
01:00 +14°C° 0 mm 0 m/S 586 mmHg 92%
02:00 +13°C° 0 mm 0 m/S 586 mmHg 91%
03:00 +13°C° 0 mm 0 m/S 585 mmHg 92%
04:00 +12°C° 0 mm 0 m/S 585 mmHg 92%
05:00 +12°C° 0 mm 0 m/S 585 mmHg 92%
06:00 +14°C° 0 mm 0 m/S 586 mmHg 85%
07:00 +18°C° 0 mm 1 m/S 587 mmHg 77%
08:00 +20°C° 0 mm 1 m/S 589 mmHg 70%
09:00 +21°C° 0.4 mm 1 m/S 589 mmHg 67%
10:00 +21°C° 0.4 mm 2 m/S 589 mmHg 65%
11:00 +24°C° 0.4 mm 3 m/S 589 mmHg 62%
12:00 +22°C° 1.2 mm 3 m/S 589 mmHg 68%
13:00 +21°C° 1.2 mm 3 m/S 588 mmHg 74%
14:00 +21°C° 1.2 mm 3 m/S 587 mmHg 80%
15:00 +20°C° 0.6 mm 3 m/S 586 mmHg 84%
16:00 +19°C° 0.6 mm 2 m/S 586 mmHg 88%
17:00 +18°C° 0.6 mm 2 m/S 585 mmHg 91%
18:00 +17°C° 0.2 mm 2 m/S 585 mmHg 93%
19:00 +16°C° 0.2 mm 1 m/S 586 mmHg 95%
20:00 +15°C° 0.2 mm 1 m/S 586 mmHg 98%
21:00 +15°C° 0 mm 1 m/S 586 mmHg 97%
22:00 +15°C° 0 mm 1 m/S 586 mmHg 97%
23:00 +13°C° 0 mm 0 m/S 586 mmHg 97%

Morgen, 5 August, Mittwoch

Zeit Temperatur Niederschläge Wind Luftdruck Luftfeuchtigkeit
00:00 +13°C° 0 mm 0 m/S 585 mmHg 97%
01:00 +13°C° 0 mm 0 m/S 585 mmHg 96%
02:00 +13°C° 0 mm 0 m/S 585 mmHg 96%
03:00 +14°C° 0 mm 1 m/S 585 mmHg 96%
04:00 +13°C° 0 mm 1 m/S 584 mmHg 95%
05:00 +13°C° 0 mm 1 m/S 584 mmHg 95%
06:00 +15°C° 0 mm 1 m/S 586 mmHg 89%
07:00 +18°C° 0 mm 1 m/S 587 mmHg 83%
08:00 +18°C° 0 mm 0 m/S 588 mmHg 77%
09:00 +20°C° 0.2 mm 1 m/S 588 mmHg 74%
10:00 +20°C° 0.2 mm 2 m/S 588 mmHg 72%
11:00 +21°C° 0.2 mm 3 m/S 588 mmHg 70%
12:00 +21°C° 0.5 mm 3 m/S 587 mmHg 72%
13:00 +21°C° 0.5 mm 3 m/S 587 mmHg 74%
14:00 +21°C° 0.5 mm 4 m/S 586 mmHg 77%
15:00 +20°C° 0.3 mm 3 m/S 586 mmHg 80%
16:00 +19°C° 0.3 mm 3 m/S 585 mmHg 84%
17:00 +18°C° 0.3 mm 3 m/S 584 mmHg 87%
18:00 +17°C° 0.1 mm 2 m/S 585 mmHg 90%
19:00 +16°C° 0.1 mm 2 m/S 585 mmHg 93%
20:00 +15°C° 0.1 mm 1 m/S 585 mmHg 96%
21:00 +15°C° 0 mm 1 m/S 585 mmHg 94%
22:00 +15°C° 0 mm 1 m/S 585 mmHg 93%
23:00 +15°C° 0 mm 1 m/S 585 mmHg 91%

übermorgen, 6 August, Donnerstag

Zeit Temperatur Niederschläge Wind Luftdruck Luftfeuchtigkeit
00:00 +13°C° 0 mm 0 m/S 585 mmHg 92%
01:00 +12°C° 0 mm 0 m/S 584 mmHg 93%
02:00 +12°C° 0 mm 0 m/S 583 mmHg 94%
03:00 +11°C° 0 mm 0 m/S 583 mmHg 94%
04:00 +11°C° 0 mm 0 m/S 583 mmHg 95%
05:00 +11°C° 0 mm 0 m/S 583 mmHg 95%
06:00 +14°C° 0 mm 1 m/S 584 mmHg 89%
07:00 +16°C° 0 mm 1 m/S 585 mmHg 83%
08:00 +19°C° 0 mm 1 m/S 587 mmHg 77%
09:00 +19°C° 0 mm 2 m/S 587 mmHg 72%
10:00 +20°C° 0 mm 3 m/S 587 mmHg 67%
11:00 +22°C° 0 mm 3 m/S 588 mmHg 62%
12:00 +22°C° 0.1 mm 4 m/S 587 mmHg 63%
13:00 +22°C° 0.1 mm 4 m/S 587 mmHg 63%
14:00 +21°C° 0.1 mm 5 m/S 586 mmHg 64%
15:00 +20°C° 0.1 mm 4 m/S 586 mmHg 70%
16:00 +19°C° 0.1 mm 3 m/S 585 mmHg 76%
17:00 +18°C° 0.1 mm 3 m/S 585 mmHg 82%
18:00 +17°C° 0.2 mm 2 m/S 585 mmHg 86%
19:00 +17°C° 0.2 mm 2 m/S 585 mmHg 90%
20:00 +16°C° 0.2 mm 2 m/S 585 mmHg 94%
21:00 +15°C° 0 mm 2 m/S 585 mmHg 94%
22:00 +15°C° 0 mm 2 m/S 585 mmHg 95%
23:00 +15°C° 0 mm 1 m/S 585 mmHg 95%

7 August, Freitag

Zeit Temperatur Niederschläge Wind Luftdruck Luftfeuchtigkeit
00:00 +15°C° 0 mm 1 m/S 585 mmHg 95%
01:00 +14°C° 0 mm 1 m/S 585 mmHg 95%
02:00 +14°C° 0 mm 1 m/S 584 mmHg 95%
03:00 +14°C° 0 mm 1 m/S 584 mmHg 94%
04:00 +14°C° 0 mm 1 m/S 584 mmHg 93%
05:00 +14°C° 0 mm 1 m/S 584 mmHg 93%
06:00 +15°C° 0 mm 1 m/S 585 mmHg 88%
07:00 +16°C° 0 mm 1 m/S 586 mmHg 83%
08:00 +18°C° 0 mm 2 m/S 587 mmHg 78%
09:00 +19°C° 0.1 mm 3 m/S 587 mmHg 72%
10:00 +21°C° 0.1 mm 3 m/S 588 mmHg 66%
11:00 +22°C° 0.1 mm 4 m/S 588 mmHg 61%
12:00 +22°C° 0.2 mm 5 m/S 587 mmHg 63%
13:00 +21°C° 0.2 mm 5 m/S 587 mmHg 65%
14:00 +21°C° 0.2 mm 5 m/S 586 mmHg 67%
15:00 +20°C° 0.2 mm 5 m/S 586 mmHg 73%
16:00 +19°C° 0.2 mm 4 m/S 585 mmHg 79%
17:00 +17°C° 0.2 mm 3 m/S 585 mmHg 85%
18:00 +17°C° 0.1 mm 3 m/S 585 mmHg 89%
19:00 +16°C° 0.1 mm 2 m/S 585 mmHg 93%
20:00 +15°C° 0.1 mm 2 m/S 586 mmHg 96%
21:00 +15°C° 0.1 mm 2 m/S 586 mmHg 96%
22:00 +15°C° 0.1 mm 2 m/S 586 mmHg 95%
23:00 +15°C° 0.1 mm 2 m/S 586 mmHg 94%

8 August, Samstag

Zeit Temperatur Niederschläge Wind Luftdruck Luftfeuchtigkeit
00:00 +14°C° 0 mm 1 m/S 586 mmHg 94%
01:00 +14°C° 0 mm 1 m/S 585 mmHg 94%
02:00 +13°C° 0 mm 1 m/S 584 mmHg 94%
03:00 +12°C° 0 mm 1 m/S 584 mmHg 94%
04:00 +11°C° 0 mm 1 m/S 584 mmHg 94%
05:00 +11°C° 0 mm 1 m/S 584 mmHg 95%
06:00 +13°C° 0 mm 1 m/S 585 mmHg 84%
07:00 +15°C° 0 mm 1 m/S 586 mmHg 73%
08:00 +17°C° 0 mm 2 m/S 588 mmHg 62%
09:00 +19°C° 0 mm 3 m/S 588 mmHg 59%
10:00 +20°C° 0 mm 3 m/S 589 mmHg 56%
11:00 +22°C° 0 mm 4 m/S 589 mmHg 52%
12:00 +21°C° 0.1 mm 4 m/S 588 mmHg 57%
13:00 +21°C° 0.1 mm 5 m/S 588 mmHg 62%
14:00 +21°C° 0.1 mm 5 m/S 587 mmHg 66%
15:00 +19°C° 0.1 mm 5 m/S 586 mmHg 71%
16:00 +18°C° 0.1 mm 4 m/S 586 mmHg 76%
17:00 +17°C° 0.1 mm 3 m/S 585 mmHg 81%
18:00 +16°C° 0.1 mm 3 m/S 586 mmHg 86%
19:00 +14°C° 0.1 mm 3 m/S 586 mmHg 91%
20:00 +14°C° 0.1 mm 2 m/S 586 mmHg 96%
21:00 +14°C° 0 mm 2 m/S 586 mmHg 96%
22:00 +13°C° 0 mm 1 m/S 586 mmHg 96%
23:00 +13°C° 0 mm 1 m/S 586 mmHg 96%

9 August, Sonntag

Zeit Temperatur Niederschläge Wind Luftdruck Luftfeuchtigkeit
00:00 +13°C° 0 mm 1 m/S 585 mmHg 96%
01:00 +12°C° 0 mm 1 m/S 585 mmHg 96%
02:00 +12°C° 0 mm 1 m/S 584 mmHg 96%
03:00 +11°C° 0 mm 1 m/S 584 mmHg 94%
04:00 +11°C° 0 mm 1 m/S 584 mmHg 93%
05:00 +10°C° 0 mm 1 m/S 584 mmHg 91%
06:00 +12°C° 0 mm 1 m/S 585 mmHg 82%
07:00 +15°C° 0 mm 1 m/S 587 mmHg 73%
08:00 +17°C° 0 mm 2 m/S 588 mmHg 64%
09:00 +18°C° 0 mm 2 m/S 588 mmHg 61%
10:00 +20°C° 0 mm 3 m/S 589 mmHg 58%
11:00 +21°C° 0 mm 3 m/S 589 mmHg 55%
12:00 +21°C° 0.3 mm 4 m/S 588 mmHg 61%
13:00 +20°C° 0.3 mm 4 m/S 587 mmHg 66%
14:00 +20°C° 0.3 mm 4 m/S 587 mmHg 72%
15:00 +19°C° 0.3 mm 4 m/S 586 mmHg 78%
16:00 +18°C° 0.3 mm 3 m/S 585 mmHg 84%
17:00 +16°C° 0.3 mm 3 m/S 585 mmHg 90%
18:00 +16°C° 0.1 mm 2 m/S 585 mmHg 92%
19:00 +15°C° 0.1 mm 2 m/S 585 mmHg 93%
20:00 +15°C° 0.1 mm 1 m/S 586 mmHg 94%
21:00 +15°C° 0.1 mm 1 m/S 586 mmHg 95%
22:00 +15°C° 0.1 mm 1 m/S 586 mmHg 95%
23:00 +14°C° 0.1 mm 1 m/S 586 mmHg 96%
Mehr zeigen